FW9575 Weather Reports


Display with metric or nautical units.
time (UTC)temp
F
wind
direction
speed
MPH
gust
MPH
rain 1hr
in
rain 24hr
in
rain mn
in
humidity
%
barometer
mb
20260507113805 44 285 0.0 4.0 0.00 0.00 0.00 83 1011.2
20260507113302 44 242 1.0 6.0 0.00 0.00 0.00 83 1011.0
20260507112800 44 311 3.0 12.0 0.00 0.00 0.00 83 1011.1
20260507112256 44 329 2.0 4.0 0.00 0.00 0.00 82 1011.3
20260507111755 44 286 0.0 5.0 0.00 0.00 0.00 82 1010.9
20260507111250 44 293 2.0 6.0 0.00 0.00 0.00 82 1010.9
20260507110747 44 259 1.0 7.0 0.00 0.00 0.00 82 1011.1
20260507110243 44 281 1.0 3.0 0.00 0.00 0.00 82 1010.9
20260507105740 44 292 2.0 3.0 0.00 0.00 0.00 81 1010.9
20260507105236 44 9 1.0 5.0 0.00 0.00 0.00 81 1011.1
20260507104734 44 321 1.0 3.0 0.00 0.00 0.00 81 1010.8
20260507104230 45 256 1.0 4.0 0.00 0.00 0.00 80 1011.1
20260507103726 45 343 0.0 3.0 0.00 0.00 0.00 80 1011.0
20260507103223 45 321 0.0 3.0 0.00 0.00 0.00 79 1011.1
20260507102719 45 222 1.0 3.0 0.00 0.00 0.00 78 1011.0
20260507102216 46 19 1.0 5.0 0.00 0.00 0.00 78 1011.0
20260507101712 46 310 0.0 6.0 0.00 0.00 0.00 77 1011.2
20260507101207 46 328 1.0 3.0 0.00 0.00 0.00 76 1011.1
20260507100705 47 294 2.0 8.0 0.00 0.00 0.00 76 1011.2
20260507100203 47 296 5.0 6.0 0.00 0.00 0.00 76 1011.1
20260507095701 47 297 5.0 10.0 0.00 0.00 0.00 76 1011.1
20260507095157 47 305 4.0 8.0 0.00 0.00 0.00 76 1011.4
20260507094654 47 259 6.0 8.0 0.00 0.00 0.00 76 1011.3
20260507094150 47 297 5.0 6.0 0.00 0.00 0.00 76 1011.2
20260507093648 47 297 3.0 6.0 0.00 0.00 0.00 76 1011.3
20260507093146 47 291 3.0 5.0 0.00 0.00 0.00 76 1011.3
20260507092643 47 246 0.0 8.0 0.00 0.00 0.00 75 1011.4
20260507092139 47 295 2.0 7.0 0.00 0.00 0.00 75 1011.3
20260507091636 47 309 4.0 6.0 0.00 0.00 0.00 75 1011.5
20260507091132 47 241 1.0 7.0 0.00 0.00 0.00 75 1011.8
20260507090628 47 223 1.0 7.0 0.00 0.00 0.00 75 1011.8
20260507090126 47 300 1.0 7.0 0.00 0.00 0.00 75 1011.5
20260507085622 47 185 0.0 7.0 0.00 0.00 0.00 75 1011.8
20260507085119 47 275 3.0 4.0 0.00 0.00 0.00 75 1011.6
20260507084616 47 167 0.0 5.0 0.00 0.00 0.00 74 1011.6
20260507084112 48 271 3.0 8.0 0.00 0.00 0.00 74 1012.0
20260507083609 48 260 3.0 6.0 0.00 0.00 0.00 74 1012.1
20260507083106 48 261 5.0 10.0 0.00 0.00 0.00 74 1012.0
20260507082602 48 281 2.0 5.0 0.00 0.00 0.00 73 1011.9
20260507082058 48 306 0.0 6.0 0.00 0.00 0.00 73 1012.0
20260507081554 48 288 2.0 8.0 0.00 0.00 0.00 73 1012.1
20260507081052 48 253 2.0 6.0 0.00 0.00 0.00 72 1012.2
20260507080548 48 284 4.0 8.0 0.00 0.00 0.00 72 1012.2
20260507080044 49 353 1.0 7.0 0.00 0.00 0.00 71 1012.4
20260507075539 49 258 1.0 6.0 0.00 0.00 0.00 71 1012.4
20260507075036 49 325 2.0 5.0 0.00 0.00 0.00 71 1012.4
20260507074533 49 268 6.0 10.0 0.00 0.00 0.00 70 1012.5
20260507074032 49 290 4.0 7.0 0.00 0.00 0.00 70 1012.6
20260507073527 49 272 5.0 7.0 0.00 0.00 0.00 69 1012.7
20260507073024 49 311 2.0 7.0 0.00 0.00 0.00 69 1012.6
20260507072521 49 215 0.0 7.0 0.00 0.00 0.00 68 1012.7
20260507072019 49 268 3.0 5.0 0.00 0.00 0.00 68 1012.8
20260507071516 49 289 3.0 6.0 0.00 0.00 0.00 67 1012.7
20260507071012 49 297 4.0 7.0 0.00 0.00 0.00 67 1012.7
20260507070510 49 256 3.0 5.0 0.00 0.00 0.00 67 1012.9
20260507070010 49 264 3.0 10.0 0.00 0.00 0.00 66 1013.1
20260507065502 49 285 4.0 7.0 0.00 0.00 0.00 66 1013.1
20260507065000 49 265 3.0 7.0 0.00 0.00 0.00 65 1013.2
20260507064458 49 261 2.0 7.0 0.00 0.00 0.00 64 1013.3
20260507063956 49 276 0.0 8.0 0.00 0.00 0.00 64 1013.1
20260507063452 49 298 3.0 8.0 0.00 0.00 0.00 63 1013.2
20260507062949 50 358 0.0 6.0 0.00 0.00 0.00 62 1013.3
20260507062447 50 286 4.0 7.0 0.00 0.00 0.00 61 1013.3
20260507061944 50 266 2.0 11.0 0.00 0.00 0.00 60 1013.5
20260507061442 50 290 5.0 9.0 0.00 0.00 0.00 59 1013.4
20260507060940 50 270 3.0 6.0 0.00 0.00 0.00 58 1013.5
20260507060437 50 285 0.0 7.0 0.00 0.00 0.00 58 1013.5
20260507055933 50 283 3.0 8.0 0.00 0.00 0.00 57 1013.7
20260507055428 50 307 4.0 7.0 0.00 0.00 0.00 56 1013.4
20260507054926 51 278 2.0 9.0 0.00 0.00 0.00 55 1013.6
20260507054422 50 281 5.0 6.0 0.00 0.00 0.00 55 1013.5
20260507053919 51 281 5.0 8.0 0.00 0.00 0.00 54 1013.4
20260507053416 50 285 2.0 7.0 0.00 0.00 0.00 53 1013.4
20260507052915 51 315 3.0 8.0 0.00 0.00 0.00 53 1013.3
20260507052412 51 276 2.0 5.0 0.00 0.00 0.00 52 1013.6
20260507051909 51 296 2.0 9.0 0.00 0.00 0.00 51 1013.6
20260507051407 51 283 2.0 6.0 0.00 0.00 0.00 51 1013.5
20260507050903 51 299 2.0 4.0 0.00 0.00 0.00 50 1013.6
20260507050400 51 4 0.0 3.0 0.00 0.00 0.00 49 1013.4
20260507045857 51 279 2.0 5.0 0.00 0.00 0.00 48 1013.4
20260507045353 52 289 4.0 7.0 0.00 0.00 0.00 47 1013.6
20260507044851 52 266 0.0 11.0 0.00 0.00 0.00 46 1013.7
20260507044347 52 282 3.0 9.0 0.00 0.00 0.00 44 1013.6
20260507043843 52 277 2.0 8.0 0.00 0.00 0.00 44 1013.8
20260507043340 52 298 3.0 5.0 0.00 0.00 0.00 42 1013.7
20260507042836 52 278 6.0 6.0 0.00 0.00 0.00 41 1013.8
20260507042332 52 353 2.0 6.0 0.00 0.00 0.00 41 1014.0
20260507041829 52 310 2.0 4.0 0.00 0.00 0.00 40 1013.7
20260507041325 52 293 1.0 1.0 0.00 0.00 0.00 40 1013.9
20260507040823 53 314 3.0 5.0 0.00 0.00 0.00 40 1013.7
20260507040319 53 311 0.0 3.0 0.00 0.00 0.00 40 1013.8
20260507035815 53 344 0.0 2.0 0.00 0.00 0.00 39 1014.2
20260507035310 53 296 1.0 2.0 0.00 0.00 0.00 39 1013.9
20260507034808 53 3 0.0 2.0 0.00 0.00 0.00 39 1014.0
20260507034305 53 359 0.0 5.0 0.00 0.00 0.00 39 1013.8
20260507033803 53 303 0.0 2.0 0.00 0.00 0.00 39 1014.0
20260507033301 53 89 0.0 1.0 0.00 0.00 0.00 39 1014.0
20260507032757 53 101 0.0 3.0 0.00 0.00 0.00 39 1014.1
20260507032253 53 12 0.0 2.0 0.00 0.00 0.00 39 1013.9
20260507031750 53 356 0.0 3.0 0.00 0.00 0.00 39 1013.9
20260507031247 53 79 0.0 2.0 0.00 0.00 0.00 39 1014.2
20260507030744 52 351 0.0 2.0 0.00 0.00 0.00 40 1014.1
20260507030241 52 15 1.0 2.0 0.00 0.00 0.00 39 1014.2
20260507025738 52 358 1.0 2.0 0.00 0.00 0.00 39 1013.9
20260507025235 52 353 0.0 2.0 0.00 0.00 0.00 39 1013.8
20260507024733 52 8 1.0 2.0 0.00 0.00 0.00 39 1014.1
20260507024230 52 22 1.0 2.0 0.00 0.00 0.00 39 1014.0
20260507023726 53 2 2.0 2.0 0.00 0.00 0.00 38 1014.0
20260507023223 53 27 0.0 2.0 0.00 0.00 0.00 38 1013.8
20260507022720 53 344 0.0 2.0 0.00 0.00 0.00 37 1013.9
20260507022216 53 12 1.0 2.0 0.00 0.00 0.00 37 1013.9
20260507021712 54 343 0.0 2.0 0.00 0.00 0.00 36 1013.8
20260507021208 54 322 0.0 2.0 0.00 0.00 0.00 36 1013.6
20260507020707 54 340 0.0 2.0 0.00 0.00 0.00 37 1013.8
20260507020202 55 8 0.0 1.0 0.00 0.00 0.00 35 1013.5
20260507015701 55 0 0.0 2.0 0.00 0.00 0.00 35 1013.6
20260507015158 55 6 0.0 1.0 0.00 0.00 0.00 35 1013.6
20260507014654 56 10 2.0 2.0 0.00 0.00 0.00 34 1013.5
20260507014150 57 6 0.0 3.0 0.00 0.00 0.00 32 1013.4
20260507013647 57 354 0.0 3.0 0.00 0.00 0.00 31 1013.6
20260507013144 57 303 3.0 3.0 0.00 0.00 0.00 31 1013.5
20260507012642 58 282 2.0 4.0 0.00 0.00 0.00 30 1013.6
20260507012137 58 298 4.0 4.0 0.00 0.00 0.00 30 1013.8
20260507011635 58 322 2.0 4.0 0.00 0.00 0.00 30 1013.6
20260507011131 59 289 2.0 5.0 0.00 0.00 0.00 29 1013.7
20260507010626 59 305 3.0 4.0 0.00 0.00 0.00 29 1013.7
20260507010122 59 293 2.0 5.0 0.00 0.00 0.00 29 1013.6
20260507005620 59 302 4.0 7.0 0.00 0.00 0.00 28 1013.6
20260507005116 59 302 2.0 7.0 0.00 0.00 0.00 28 1013.7
20260507004613 59 293 4.0 6.0 0.00 0.00 0.00 28 1013.7
20260507004110 59 291 9.0 9.0 0.00 0.00 0.00 28 1013.7
20260507003606 59 288 7.0 10.0 0.00 0.00 0.00 28 1013.5
20260507003101 60 343 2.0 5.0 0.00 0.00 0.00 28 1013.6
20260507002558 60 332 2.0 6.0 0.00 0.00 0.00 27 1013.7
20260507002054 60 275 3.0 9.0 0.00 0.00 0.00 27 1013.8
20260507001551 60 298 5.0 9.0 0.00 0.00 0.00 27 1013.6
20260507001048 60 331 2.0 5.0 0.00 0.00 0.00 28 1013.9
20260507000544 60 298 1.0 9.0 0.00 0.00 0.00 27 1013.9
20260507000040 61 289 4.0 9.0 0.00 0.00 0.00 27 1013.8
20260506235538 61 358 0.0 6.0 0.00 0.00 0.00 27 1013.8
20260506235033 61 347 3.0 6.0 0.00 0.00 0.00 26 1013.8
20260506234531 62 297 5.0 11.0 0.00 0.00 0.00 25 1014.2
20260506234028 62 336 2.0 5.0 0.00 0.00 0.00 26 1013.9
20260506233524 61 284 10.0 10.0 0.00 0.00 0.00 26 1014.1
20260506233021 61 285 6.0 8.0 0.00 0.00 0.00 27 1014.2
20260506232517 62 308 4.0 10.0 0.00 0.00 0.00 26 1014.1
20260506232013 62 275 6.0 13.0 0.00 0.00 0.00 25 1014.2
20260506231511 62 285 7.0 16.0 0.00 0.00 0.00 25 1014.4
20260506231009 63 307 9.0 11.0 0.00 0.00 0.00 26 1014.3
20260506230504 63 314 4.0 9.0 0.00 0.00 0.00 25 1014.1
20260506230002 62 294 3.0 6.0 0.00 0.00 0.00 27 1014.1
20260506225459 60 286 3.0 9.0 0.00 0.00 0.00 28 1014.1
20260506224955 61 284 6.0 9.0 0.00 0.00 0.00 26 1014.0
20260506224452 60 351 3.0 7.0 0.00 0.00 0.00 27 1014.2
20260506223948 60 318 2.0 8.0 0.00 0.00 0.00 28 1014.2
20260506223444 60 293 1.0 14.0 0.00 0.00 0.00 27 1014.2
20260506222942 62 343 5.0 11.0 0.00 0.00 0.00 26 1014.7
20260506222438 60 265 5.0 12.0 0.00 0.00 0.00 27 1014.4
20260506221935 61 293 6.0 11.0 0.00 0.00 0.00 27 1014.6
20260506221432 61 294 6.0 8.0 0.00 0.00 0.00 27 1014.3
20260506220930 62 279 8.0 12.0 0.00 0.00 0.00 25 1014.6
20260506220425 63 309 2.0 7.0 0.00 0.00 0.00 26 1014.8
20260506215922 62 316 2.0 8.0 0.00 0.00 0.00 25 1014.9
20260506215418 60 355 3.0 9.0 0.00 0.00 0.00 27 1015.0
20260506214914 61 349 2.0 11.0 0.00 0.00 0.00 26 1014.6
20260506214411 62 30 3.0 7.0 0.00 0.00 0.00 26 1014.8
20260506213909 61 322 2.0 8.0 0.00 0.00 0.00 26 1014.9
20260506213406 60 330 4.0 9.0 0.00 0.00 0.00 28 1014.9
20260506212904 60 344 4.0 12.0 0.00 0.00 0.00 26 1014.9
20260506212359 62 244 7.0 12.0 0.00 0.00 0.00 26 1015.1
20260506211854 61 241 5.0 14.0 0.00 0.00 0.00 26 1014.9
20260506211350 63 271 4.0 8.0 0.00 0.00 0.00 25 1015.0
20260506210848 60 281 5.0 11.0 0.00 0.00 0.00 27 1015.2
20260506210344 59 293 7.0 7.0 0.00 0.00 0.00 27 1015.2
20260506205842 59 278 9.0 10.0 0.00 0.00 0.00 27 1015.6
20260506205337 60 303 2.0 10.0 0.00 0.00 0.00 28 1015.3
20260506204834 61 313 7.0 18.0 0.00 0.00 0.00 27 1015.6
20260506204332 60 290 3.0 8.0 0.00 0.00 0.00 26 1015.4
20260506203829 62 341 3.0 6.0 0.00 0.00 0.00 28 1015.3
20260506203326 62 311 3.0 5.0 0.00 0.00 0.00 26 1015.6
20260506202823 62 333 1.0 6.0 0.00 0.00 0.00 27 1015.5
20260506202320 61 340 3.0 13.0 0.00 0.00 0.00 28 1016.1
20260506201816 59 290 5.0 12.0 0.00 0.00 0.00 28 1016.0
20260506201314 60 324 2.0 9.0 0.00 0.00 0.00 28 1015.8
20260506200811 60 295 6.0 13.0 0.00 0.00 0.00 27 1015.8
20260506200307 61 308 4.0 13.0 0.00 0.00 0.00 27 1016.0
20260506195803 60 317 4.0 13.0 0.00 0.00 0.00 28 1015.9
20260506195300 62 351 4.0 12.0 0.00 0.00 0.00 27 1015.9
20260506194758 60 326 4.0 6.0 0.00 0.00 0.00 29 1015.9
20260506194254 60 253 5.0 17.0 0.00 0.00 0.00 28 1016.0
20260506193752 60 322 7.0 12.0 0.00 0.00 0.00 28 1016.0
20260506193248 60 315 6.0 8.0 0.00 0.00 0.00 29 1016.3
20260506192744 59 227 1.0 13.0 0.00 0.00 0.00 29 1016.1
20260506192241 60 337 5.0 9.0 0.00 0.00 0.00 28 1015.9
20260506191738 61 333 7.0 12.0 0.00 0.00 0.00 28 1016.2
20260506191234 60 335 6.0 18.0 0.00 0.00 0.00 28 1016.0
20260506190732 60 267 9.0 16.0 0.00 0.00 0.00 28 1016.1
20260506190228 60 301 1.0 5.0 0.00 0.00 0.00 27 1016.1
20260506185725 60 316 3.0 7.0 0.00 0.00 0.00 29 1016.4
20260506185221 60 314 7.0 13.0 0.00 0.00 0.00 28 1016.4
20260506184719 59 315 6.0 12.0 0.00 0.00 0.00 29 1016.2
20260506184216 59 302 3.0 10.0 0.00 0.00 0.00 29 1016.4
20260506183713 59 345 6.0 12.0 0.00 0.00 0.00 28 1016.4
20260506183209 57 273 7.0 12.0 0.00 0.00 0.00 29 1016.5
20260506182706 58 275 9.0 12.0 0.00 0.00 0.00 29 1016.5
20260506182204 59 323 3.0 6.0 0.00 0.00 0.00 29 1016.4
20260506181701 58 301 4.0 10.0 0.00 0.00 0.00 28 1016.5
20260506181158 58 286 3.0 9.0 0.00 0.00 0.00 29 1016.6
20260506180655 59 287 4.0 8.0 0.00 0.00 0.00 30 1016.8
20260506180151 58 284 8.0 9.0 0.00 0.00 0.00 30 1016.8
20260506175648 58 243 6.0 9.0 0.00 0.00 0.00 29 1016.9
20260506175144 59 257 5.0 13.0 0.00 0.00 0.00 29 1017.1
20260506174637 59 304 4.0 7.0 0.00 0.00 0.00 30 1017.0
20260506174134 56 292 3.0 7.0 0.00 0.00 0.00 31 1017.0
20260506173631 57 277 11.0 13.0 0.00 0.00 0.00 30 1017.0
20260506173128 57 339 3.0 9.0 0.00 0.00 0.00 30 1016.9
20260506172625 57 288 5.0 8.0 0.00 0.00 0.00 31 1017.1
20260506172121 57 296 0.0 6.0 0.00 0.00 0.00 31 1017.4
20260506171619 56 0 2.0 9.0 0.00 0.00 0.00 30 1017.4
20260506171116 57 8 2.0 11.0 0.00 0.00 0.00 32 1017.5
20260506170614 55 277 4.0 11.0 0.00 0.00 0.00 31 1017.5
20260506170105 55 306 5.0 9.0 0.00 0.00 0.00 33 1017.5
20260506165604 56 352 2.0 7.0 0.00 0.00 0.00 30 1017.5
20260506165059 55 337 3.0 11.0 0.00 0.00 0.00 30 1017.6
20260506164557 56 343 4.0 11.0 0.00 0.00 0.00 32 1017.9
20260506164054 55 344 4.0 11.0 0.00 0.00 0.00 32 1017.7
20260506163549 55 288 2.0 7.0 0.00 0.00 0.00 34 1017.4
20260506163046 55 336 3.0 8.0 0.00 0.00 0.00 33 1017.7
20260506162542 55 330 4.0 5.0 0.00 0.00 0.00 32 1017.8
20260506162039 55 328 6.0 12.0 0.00 0.00 0.00 32 1017.9
20260506161536 55 319 3.0 10.0 0.00 0.00 0.00 31 1017.7
20260506161028 55 339 6.0 9.0 0.00 0.00 0.00 31 1017.8
20260506160525 54 315 6.0 7.0 0.00 0.00 0.00 35 1017.7
20260506160022 54 297 10.0 12.0 0.00 0.00 0.00 35 1017.6
20260506155520 53 358 4.0 7.0 0.00 0.00 0.00 34 1017.4
20260506153652 53 256 2.0 6.0 0.00 0.00 0.00 38 1017.6
20260506153149 52 250 3.0 8.0 0.00 0.00 0.00 36 1017.6
20260506152646 52 340 2.0 5.0 0.00 0.00 0.00 36 1017.5
20260506152143 52 38 4.0 6.0 0.00 0.00 0.00 35 1017.5
20260506151642 52 316 3.0 4.0 0.00 0.00 0.00 37 1017.6
20260506151138 52 346 2.0 6.0 0.00 0.00 0.00 37 1017.8
20260506150635 51 357 3.0 6.0 0.00 0.00 0.00 38 1017.7
20260506150132 51 342 3.0 5.0 0.00 0.00 0.00 39 1017.8
20260506145629 51 96 2.0 6.0 0.00 0.00 0.00 39 1017.7
20260506145126 51 24 1.0 5.0 0.00 0.00 0.00 38 1017.7
20260506144624 51 320 2.0 4.0 0.00 0.00 0.00 38 1017.6
20260506144120 50 351 0.0 3.0 0.00 0.00 0.00 39 1017.8
20260506143618 50 358 3.0 4.0 0.00 0.00 0.00 40 1017.7
20260506143116 50 355 2.0 3.0 0.00 0.00 0.00 41 1017.8
20260506142614 49 301 2.0 4.0 0.00 0.00 0.00 41 1017.8
20260506142112 49 211 0.0 5.0 0.00 0.00 0.00 40 1017.7
20260506141609 48 328 3.0 4.0 0.00 0.00 0.00 43 1017.8
20260506141107 48 333 3.0 5.0 0.00 0.00 0.00 41 1017.7
20260506140604 49 16 1.0 2.0 0.00 0.00 0.00 42 1017.5
20260506135558 48 12 2.0 3.0 0.00 0.00 0.00 45 1017.4
20260506135054 48 359 3.0 4.0 0.00 0.00 0.00 45 1017.5
20260506134551 47 62 2.0 5.0 0.00 0.00 0.00 44 1017.7
20260506134047 47 5 3.0 3.0 0.00 0.00 0.00 45 1017.5
20260506133544 47 35 4.0 5.0 0.00 0.00 0.00 45 1017.5
20260506133041 46 349 2.0 3.0 0.00 0.00 0.00 47 1017.4
20260506132539 46 323 1.0 5.0 0.00 0.00 0.00 48 1017.5
20260506132036 45 35 2.0 3.0 0.00 0.00 0.00 49 1017.4
20260506131533 45 353 2.0 5.0 0.00 0.00 0.00 49 1017.1
20260506131029 45 0 1.0 3.0 0.00 0.00 0.00 49 1016.9
20260506130526 44 332 3.0 5.0 0.00 0.00 0.00 50 1017.1
20260506130023 44 10 2.0 4.0 0.00 0.00 0.00 50 1016.9
20260506125521 44 350 3.0 4.0 0.00 0.00 0.00 52 1017.1
20260506125019 44 16 2.0 4.0 0.00 0.00 0.00 52 1016.8
20260506124517 44 359 2.0 4.0 0.00 0.00 0.00 51 1016.9
20260506124014 44 355 2.0 4.0 0.00 0.00 0.00 51 1016.6
20260506123512 44 10 2.0 4.0 0.00 0.00 0.00 51 1016.8
20260506123010 43 26 2.0 4.0 0.00 0.00 0.00 54 1016.6
20260506122506 42 343 3.0 4.0 0.00 0.00 0.00 55 1016.5
20260506122005 42 334 2.0 4.0 0.00 0.00 0.00 56 1016.3
20260506121502 42 8 2.0 3.0 0.00 0.00 0.00 56 1016.3
20260506120958 42 6 2.0 4.0 0.00 0.00 0.00 56 1016.2
20260506120456 42 353 3.0 3.0 0.00 0.00 0.00 58 1016.1
20260506115953 42 359 1.0 2.0 0.00 0.00 0.00 59 1016.1
20260506115451 41 354 2.0 3.0 0.00 0.00 0.00 57 1016.0
20260506114949 41 352 1.0 3.0 0.00 0.00 0.00 57 1016.0
20260506114446 41 354 2.0 3.0 0.00 0.00 0.00 58 1015.9